Location: Tel Aviv
(32.0670°N, 34.7670°E)
Time: 11:42:01
(UTC+02:00)

S-56A Canister/Altair - Visible Passes

Search period start: 28 January 2022 00:00
Search period end: 07 February 2022 00:00
Orbit: 634 x 2499 km, 38.9° (Epoch: 26 January)

Date Brightness Start Highest point End Pass type
(mag) Time Alt. Az. Time Alt. Az. Time Alt. Az.
28 Jan 8.6 04:56:06 13° SSW 04:59:35 33° SSE 05:03:35 10° E visible
29 Jan 8.9 04:25:55 24° S 04:27:07 27° SE 04:30:53 10° E visible
30 Jan 9.4 03:55:35 21° SE 03:55:35 21° SE 03:58:12 10° E visible
30 Jan 7.1 05:53:33 10° WSW 05:58:03 71° NNW 06:02:41 10° ENE visible
31 Jan 10.2 03:25:09 11° ESE 03:25:09 11° ESE 03:25:29 10° E visible
31 Jan 7.0 05:22:36 21° WSW 05:25:35 83° NNW 05:30:05 10° ENE visible
01 Feb 7.1 04:52:03 53° WSW 04:53:08 85° SSE 04:57:34 10° ENE visible
02 Feb 7.7 04:21:26 58° E 04:21:26 58° E 04:25:05 10° ENE visible
03 Feb 9.2 03:50:45 25° E 03:50:45 25° E 03:52:39 10° ENE visible
03 Feb 7.7 05:48:11 13° W 05:51:58 41° NNW 05:56:16 10° ENE visible
04 Feb 10.3 03:19:59 11° ENE 03:19:59 11° ENE 03:20:13 10° ENE visible
04 Feb 7.6 05:17:26 28° WNW 05:19:26 45° NNW 05:23:42 10° ENE visible
05 Feb 7.5 04:46:38 50° NNW 04:46:54 51° NNW 04:51:14 10° ENE visible
06 Feb 8.3 04:15:48 40° NE 04:15:48 40° NE 04:18:49 10° ENE visible
